This demonstration page uses our WeatherBlox Daily Observations layout. Learn more.

Left ArrowRight Arrow

Hourly Observations for May 5, 2016

Temp ( °F °C ) Dew Point ( °F °C ) Humidity (%) Winds ( mph kmh ) Pressure ( in mb ) Visibility ( mi km ) Precip ( " mm )
12:53 am 00:53 Cloudy 46 7.8 36 2.2 68 68 WNW 10 17 29.76 1008 10 16 N/A
1:33 am 01:33 Cloudy 45 7.2 37 2.8 74 74 NW 7 11 29.77 1008 10 16 N/A
1:53 am 01:53 Cloudy with Light Rain 44 6.7 38 3.3 79 79 NNW 8 13 29.75 1008 10 16 N/A
2:53 am 02:53 Cloudy 43 6.1 39 3.9 86 86 NNW 5 7 29.75 1007 10 16 0.02 0.51
3:33 am 03:33 Cloudy 43 6.1 40 4.4 89 89 N N/A 29.77 1008 10 16 N/A
3:53 am 03:53 Cloudy 43 6.1 40 4.4 89 89 NNW 3 6 29.73 1007 10 16 N/A
4:03 am 04:03 Cloudy 43 6.1 40 4.4 89 89 NNW 3 6 29.77 1008 10 16 N/A
4:29 am 04:29 Cloudy 43 6.1 38 3.3 82 82 NNW 5 7 29.77 1008 10 16 N/A
4:36 am 04:36 Cloudy 43 6.1 39 3.9 86 86 NNW 3 6 29.77 1008 10 16 N/A
4:53 am 04:53 Cloudy 43 6.1 39 3.9 86 86 N 3 6 29.75 1007 9 14 N/A
5:53 am 05:53 Cloudy 43 6.1 39 3.9 86 86 N 5 7 29.76 1008 10 16 N/A
6:53 am 06:53 Cloudy 42 5.6 38 3.3 85 85 NNE 8 13 29.79 1009 10 16 N/A
7:41 am 07:41 Cloudy 42 5.6 37 2.8 82 82 N 5 7 29.83 1010 10 16 N/A
7:53 am 07:53 Cloudy 42 5.6 37 2.8 82 82 N 5 7 29.82 1010 10 16 N/A
8:53 am 08:53 Sunny 46 7.8 37 2.8 71 71 N 9 15 29.83 1010 10 16 N/A
9:53 am 09:53 Sunny 49 9.4 37 2.8 64 64 NE 5 7 29.84 1011 10 16 N/A
10:53 am 10:53 Cloudy 50 10 37 2.8 61 61 NE 3 6 29.86 1011 10 16 N/A
11:51 am 11:51 Cloudy 48 9 39 4 71 71 NNW 9 15 29.91 1013 10 16 N/A
11:53 am 11:53 Cloudy 49 9.4 39 3.9 69 69 NNW 7 11 29.87 1012 10 16 N/A
12:53 pm 12:53 Cloudy 50 10 43 6.1 77 77 NNW 8 13 29.88 1012 10 16 N/A
1:53 pm 13:53 Cloudy 50 10 44 6.7 80 80 NNW 7 11 29.88 1012 8 13 N/A
2:20 pm 14:20 Cloudy 50 10 44 6.7 80 80 NW 3 6 29.91 1013 8 13 N/A
2:53 pm 14:53 Cloudy 53 11.7 46 7.8 77 77 NNW 9 15 29.88 1012 7 11 N/A
3:53 pm 15:53 Mostly Cloudy 55 12.8 47 8.3 74 74 WNW 7 11 29.87 1012 8 13 N/A
4:53 pm 16:53 Partly Cloudy 60 15.6 49 9.4 67 67 NNW 8 13 29.86 1011 10 16 N/A
5:53 pm 17:53 Mostly Cloudy 58 14.4 50 10 75 75 WNW 5 7 29.87 1011 10 16 0.01 0.25
6:53 pm 18:53 Sunny 60 15.6 50 10 70 70 WSW 6 9 29.86 1011 10 16 N/A
7:53 pm 19:53 Cloudy 59 15 50 10 72 72 WNW 5 7 29.87 1011 10 16 N/A
8:53 pm 20:53 Mostly Cloudy 58 14.4 43 6.1 58 58 N 3 6 29.88 1012 10 16 N/A
9:53 pm 21:53 Cloudy 53 11.7 47 8.3 80 80 WNW 5 7 29.89 1012 10 16 N/A
10:53 pm 22:53 Cloudy 53 11.7 47 8.3 80 80 WNW 5 7 29.91 1013 10 16 N/A
11:53 pm 23:53 Mostly Clear 49 9.4 46 7.8 90 90 N N/A 29.91 1013 10 16 N/A

Powered by AerisWeather